Location: Bouchavesnes-Bergen
(49.9859°N, 2.9203°E)
Time: 11:08:19
(UTC+00:00)

MSX - Pass Details

Date: 09 March 2021
Orbit: 894 x 906 km, 98.8° (Epoch: 13 April)

Event Time Altitude Azimuth Distance (km) Brightness Sun altitude
Rises 02:36:09 0° 18° (NNE) 3,527 7.7 -33.7°
Reaches altitude 10° 02:38:38 10° 23° (NNE) 2,581 6.9 -33.4°
Enters shadow 02:43:59 52° 90° (E) 1,100 4.4 -32.8°
